Weather History for Dayton, OH

Change the Weather History Date:

Thursday, January 24, 2013

  Actual Average Record
Temperature  
Mean Temperature 14 °F 28 °F  
Max Temperature 21 °F 35 °F 71 °F (1943)
Min Temperature 7 °F 20 °F -19 °F (1963)
Degree Days  
Heating Degree Days 51 37  
Month to date heating degree days 839 905  
Since 1 July heating degree days 2873 3064  
Cooling Degree Days 0 0  
Month to date cooling degree days 0 0  
Year to date cooling degree days 0 0  
Moisture  
Dew Point 8 °F    
Average Humidity 70    
Maximum Humidity 84    
Minimum Humidity 56    
Precipitation  
Precipitation T in 0.08 in 1.72 in (1937)
Month to date precipitation 1.47 2.15  
Year to date precipitation 1.47 2.15  
Snow  
Snow 0.10 in 0.20 in 4.90 in (1941)
Month to date snowfall 1.6 6.1  
Since 1 July snowfall 13.4 11.6  
Snow Depth 1.00 in    
Sea Level Pressure  
Sea Level Pressure 30.42 in    
Wind  
Wind Speed 9 mph (North)    
Max Wind Speed 23 mph    
Max Gust Speed 31 mph    
Visibility 9 miles    
Events Snow    
T = Trace of Precipitation, MM = Missing Value Source: NWS Daily Summary

Daily Weather History Graph

Daily Weather History Graph

Search for Another Location

Airport:

Trip Planner

Search our weather history database for the weather conditions in past years. The results will help you decide how hot, cold, wet, or windy it might be!

Date:

Astronomy

Jan. 24, 2013 Rise Set
Actual Time 7:51 AM EST 5:47 PM EST
Civil Twilight 7:22 AM EST 6:16 PM EST
Nautical Twilight 6:49 AM EST 6:48 PM EST
Astronomical Twilight 6:17 AM EST 7:20 PM EST
Moon 3:48 PM EST 5:48 AM EST
Length of Visible Light 10h 53m
Length of Day
9h 55m
Waxing Gibbous, 94% of the Moon is Illuminated
Jan 24
Waxing Gibbous
Jan 26
Full
Feb 3
Last Quarter
Feb 10
New
Feb 17
First Quarter

Hourly Weather History & Observations

Time (EST) Temp. Windchill Dew Point Humidity Pressure Visibility Wind Dir Wind Speed Gust Speed Precip Events Conditions
12:38 AM 19.4 °F 6.6 °F 15.8 °F 86% 30.10 in 2.5 mi WNW 12.7 mph - 0.00 in Snow Light Snow
12:50 AM 19.4 °F 6.0 °F 15.8 °F 86% 30.11 in 1.8 mi WNW 13.8 mph - 0.00 in Snow Light Snow
12:56 AM 19.0 °F 5.6 °F 15.1 °F 85% 30.15 in 1.8 mi WNW 13.8 mph - 0.00 in Snow Light Snow
1:04 AM 19.4 °F 4.5 °F 14.0 °F 80% 30.11 in 7.0 mi WNW 17.3 mph - 0.00 in Snow Light Snow
1:40 AM 19.4 °F 2.8 °F 10.4 °F 68% 30.13 in 8.0 mi NW 21.9 mph 28.8 mph 0.00 in   Overcast
1:46 AM 17.6 °F 0.1 °F 10.4 °F 73% 30.14 in 9.0 mi WNW 23.0 mph 27.6 mph 0.00 in   Overcast
1:56 AM 18.0 °F 2.6 °F 10.0 °F 71% 30.19 in 10.0 mi NW 17.3 mph - 0.00 in   Overcast
2:53 AM 17.6 °F 1.7 °F 10.4 °F 73% 30.19 in 2.5 mi NW 18.4 mph 31.1 mph 0.00 in Snow Light Snow
2:56 AM 17.1 °F 2.5 °F 10.0 °F 74% 30.25 in 4.0 mi NW 15.0 mph 31.1 mph 0.00 in Snow Light Snow
3:14 AM 15.8 °F 0.3 °F 10.4 °F 79% 30.22 in 10.0 mi NW 16.1 mph - 0.00 in   Scattered Clouds
3:56 AM 14.0 °F -1.4 °F 6.1 °F 71% 30.31 in 10.0 mi NNW 15.0 mph - 0.00 in   Clear
4:56 AM 12.9 °F -2.8 °F 3.0 °F 65% 30.35 in 10.0 mi NNW 15.0 mph - N/A   Clear
5:56 AM 10.9 °F -4.7 °F 3.0 °F 70% 30.39 in 10.0 mi NNW 13.8 mph - N/A   Partly Cloudy
6:56 AM 8.1 °F -3.2 °F 1.9 °F 76% 30.44 in 10.0 mi NNW 6.9 mph - N/A   Partly Cloudy
7:56 AM 8.1 °F -2.0 °F 3.0 °F 80% 30.49 in 10.0 mi NNW 5.8 mph - N/A   Scattered Clouds
8:56 AM 9.0 °F -0.9 °F 3.0 °F 77% 30.51 in 10.0 mi North 5.8 mph - N/A   Mostly Cloudy
9:56 AM 12.0 °F 0.5 °F 5.0 °F 73% 30.57 in 10.0 mi North 8.1 mph - N/A   Mostly Cloudy
10:56 AM 15.1 °F 4.2 °F 6.1 °F 68% 30.61 in 10.0 mi North 8.1 mph - N/A   Mostly Cloudy
11:56 AM 18.0 °F 6.1 °F 7.0 °F 62% 30.61 in 10.0 mi NNE 10.4 mph - N/A   Mostly Cloudy
12:56 PM 19.0 °F 10.0 °F 9.0 °F 65% 30.59 in 10.0 mi NNE 6.9 mph - N/A   Scattered Clouds
1:56 PM 19.9 °F 11.1 °F 10.0 °F 65% 30.58 in 10.0 mi NE 6.9 mph - N/A   Mostly Cloudy
2:56 PM 19.9 °F 13.4 °F 8.1 °F 60% 30.57 in 10.0 mi ENE 4.6 mph - N/A   Mostly Cloudy
3:56 PM 19.9 °F 11.1 °F 8.1 °F 60% 30.57 in 10.0 mi ENE 6.9 mph - N/A   Overcast
4:56 PM 19.9 °F 13.4 °F 6.1 °F 55% 30.57 in 10.0 mi ENE 4.6 mph - N/A   Overcast
5:56 PM 18.0 °F 11.1 °F 6.1 °F 60% 30.57 in 10.0 mi ENE 4.6 mph - N/A   Overcast
6:56 PM 17.1 °F 11.7 °F 6.1 °F 62% 30.59 in 10.0 mi East 3.5 mph - N/A   Overcast
7:56 PM 17.1 °F 6.6 °F 6.1 °F 62% 30.57 in 10.0 mi East 8.1 mph - N/A   Overcast
8:56 PM 17.1 °F 8.7 °F 8.1 °F 68% 30.55 in 10.0 mi East 5.8 mph - N/A   Overcast
9:56 PM 17.1 °F 6.6 °F 8.1 °F 68% 30.53 in 10.0 mi ESE 8.1 mph - N/A   Overcast
10:56 PM 17.1 °F 7.6 °F 8.1 °F 68% 30.51 in 10.0 mi ESE 6.9 mph - N/A   Overcast
11:56 PM 18.0 °F 6.9 °F 8.1 °F 65% 30.49 in 10.0 mi ESE 9.2 mph - N/A   Overcast